Capitol Logistics 776


LLBG
Ben Gurion International Airport
Tel Aviv, IL
EBLG
Liège Airport
Liege, BE

Route Details

Aircraft Information
Primary: Boeing 767-300BDSF
Backup: Not Available
Route Data
Distance: 1718nm
Sched. Duration: 4h 09m
Avg. Duration: 4h 34m (+25m)
Times Flown: 2
Recm'd Route: PURLA2G PURLA L53 KAROL L995 RDS UL609 MES UG18 FSK L608 LONTA L608 DOLEV ERKIR UQ863 GUPIN RIDSU L608 LIRSU
Planned Altitude: 34,000ft
Origin Wx: LLBG 291220Z 32011KT CAVOK 28/21 Q1015 NOSIG
Dest. Wx: EBLG 291220Z 24012KT 9999 SCT014 BKN021 11/09 Q1018 NOSIG
Notes:

Financial History
Total Freight: 190,822lbs
Average Load: 95,411lbs/flt
Fuel Used: 109,537lbs
Avg. Fuel Used: 54,769lbs/flt
Fuel Expense: $107,346
Avg. Fuel Expense: $53,673
Avg. Fuel Cost: $0.98/lbs
Total Gross Income: $406,488
Pilot Pay: $388
Total Expenses: $44,005
Total Revenue: $252,765
Average Revenue: $203,244.14